Weather History for KAAA - January, 2013

Change the Weather History Date:

Sunday, January 6, 2013

  Actual Average (KSPI) Record (KSPI)
Temperature  
Mean Temperature 28 °F 27 °F  
Max Temperature 38 °F 35 °F 68 °F (1907)
Min Temperature 19 °F 19 °F -14 °F (1970)
Degree Days  
Heating Degree Days 36 38  
Month to date heating degree days 228  
Since 1 July heating degree days 2368  
Cooling Degree Days 0 0  
Month to date cooling degree days 0  
Year to date cooling degree days 0  
Moisture  
Dew Point 24 °F    
Average Humidity 78    
Maximum Humidity 93    
Minimum Humidity 70    
Precipitation  
Precipitation 0.02 in 0.06 in 1.64 in (1888)
Month to date precipitation 0.41  
Year to date precipitation 0.41  
Snow  
Snow 0.00 in 0.20 in 6.20 in (1962)
Month to date snowfall 1.3  
Since 1 July snowfall 7.5  
Snow Depth -    
Sea Level Pressure  
Sea Level Pressure 30.20 in    
Wind  
Wind Speed 7 mph (WNW)    
Max Wind Speed 17 mph    
Max Gust Speed 25 mph    
Visibility 10 miles    
Events      
T = Trace of Precipitation, MM = Missing Value Source: NWS Daily Summary

Daily Weather History Graph

Daily Weather History Graph

Search for Another Location

Airport or City:

Trip Planner

Search our weather history database for the weather conditions in past years. The results will help you decide how hot, cold, wet, or windy it might be!

Date:

Astronomy

Jan. 06, 2013 Rise Set
Actual Time 7:19 AM CST 4:47 PM CST
Civil Twilight 6:49 AM CST 5:17 PM CST
Nautical Twilight 6:15 AM CST 5:51 PM CST
Astronomical Twilight 5:42 AM CST 6:24 PM CST
Moon 1:34 AM CST (1/6) 12:14 PM CST (1/6)
Length of Visible Light 10h 27m
Length of Day
9h 27m
Waning Crescent, 33% of the Moon is Illuminated
Jan 6
Waning Crescent
Jan 11
New
Jan 18
First Quarter
Jan 26
Full
Feb 3
Last Quarter

Hourly Weather History & Observations

Time (CST) Temp. Windchill Dew Point Humidity Pressure Visibility Wind Dir Wind Speed Gust Speed Precip Events Conditions
12:15 AM 37.0 °F 31.6 °F 32.0 °F 82% 30.02 in 10.0 mi SW 6.9 mph - N/A   Overcast
12:35 AM 38.1 °F 32.9 °F 32.0 °F 79% 30.02 in 10.0 mi SW 6.9 mph - N/A   Overcast
12:55 AM 37.9 °F 33.5 °F 32.0 °F 79% 30.01 in 10.0 mi SW 5.8 mph - N/A   Overcast
1:15 AM 37.6 °F 33.1 °F 32.2 °F 81% 30.01 in 10.0 mi SW 5.8 mph - N/A   Overcast
1:35 AM 37.4 °F 32.8 °F 32.2 °F 81% 30.01 in 10.0 mi SW 5.8 mph - N/A   Overcast
1:55 AM 37.4 °F 32.8 °F 32.0 °F 81% 30.01 in 10.0 mi SW 5.8 mph - N/A   Overcast
2:15 AM 37.4 °F 33.8 °F 32.5 °F 83% 30.02 in 10.0 mi WSW 4.6 mph - N/A   Overcast
2:35 AM 37.6 °F 33.1 °F 32.5 °F 82% 30.02 in 10.0 mi WSW 5.8 mph - N/A   Overcast
2:55 AM 38.3 °F 31.4 °F 32.0 °F 78% 30.01 in 10.0 mi WSW 10.4 mph - N/A   Overcast
3:15 AM 34.7 °F 28.1 °F 28.6 °F 78% 30.03 in 10.0 mi West 8.1 mph 21.9 mph N/A   Overcast
3:35 AM 33.1 °F 25.5 °F 27.5 °F 80% 30.03 in 10.0 mi WNW 9.2 mph 21.9 mph N/A   Overcast
3:55 AM 32.4 °F 25.3 °F 26.6 °F 79% 30.04 in 10.0 mi WNW 8.1 mph 19.6 mph N/A   Overcast
4:15 AM 32.0 °F 22.1 °F 25.5 °F 77% 30.05 in 10.0 mi West 13.8 mph 21.9 mph N/A   Overcast
4:35 AM 32.0 °F 23.0 °F 25.0 °F 75% 30.05 in 10.0 mi WNW 11.5 mph 19.6 mph N/A   Overcast
4:55 AM 31.6 °F 23.1 °F 24.3 °F 74% 30.06 in 10.0 mi WNW 10.4 mph 16.1 mph N/A   Overcast
5:15 AM 32.0 °F 23.6 °F 24.8 °F 75% 30.06 in 10.0 mi WNW 10.4 mph 17.3 mph N/A   Overcast
5:35 AM 31.5 °F 24.2 °F 24.8 °F 76% 30.07 in 10.0 mi WNW 8.1 mph 18.4 mph N/A   Overcast
5:55 AM 31.5 °F 25.8 °F 24.8 °F 76% 30.07 in 10.0 mi West 5.8 mph - N/A   Overcast
6:15 AM 31.6 °F 24.4 °F 25.2 °F 77% 30.08 in 10.0 mi West 8.1 mph 17.3 mph N/A   Overcast
6:35 AM 31.6 °F 22.1 °F 24.8 °F 76% 30.08 in 10.0 mi WNW 12.7 mph 25.3 mph N/A   Overcast
6:55 AM 30.9 °F 23.5 °F 24.8 °F 78% 30.09 in 10.0 mi WNW 8.1 mph 20.7 mph N/A   Overcast
7:15 AM 30.6 °F 21.8 °F 24.8 °F 79% 30.10 in 7.0 mi WNW 10.4 mph 21.9 mph N/A   Overcast
7:35 AM 29.8 °F 23.0 °F 23.2 °F 76% 30.11 in 10.0 mi WNW 6.9 mph 23.0 mph N/A   Overcast
7:55 AM 28.9 °F 21.1 °F 22.6 °F 77% 30.12 in 10.0 mi NW 8.1 mph 17.3 mph N/A   Overcast
8:15 AM 28.8 °F 21.7 °F 22.8 °F 78% 30.13 in 10.0 mi WNW 6.9 mph 19.6 mph N/A   Overcast
8:35 AM 28.8 °F 20.2 °F 23.0 °F 79% 30.14 in 7.0 mi NW 9.2 mph 17.3 mph N/A   Overcast
8:55 AM 28.2 °F 18.3 °F 22.1 °F 78% 30.15 in 10.0 mi WNW 11.5 mph 21.9 mph N/A   Overcast
9:15 AM 27.7 °F 17.6 °F 20.5 °F 74% 30.17 in 10.0 mi WNW 11.5 mph 21.9 mph N/A   Mostly Cloudy
9:35 AM 26.6 °F 15.7 °F 19.6 °F 75% 30.18 in 10.0 mi WNW 12.7 mph 23.0 mph N/A   Overcast
9:55 AM 26.6 °F 13.8 °F 19.2 °F 74% 30.19 in 10.0 mi WNW 17.3 mph 24.2 mph N/A   Mostly Cloudy
10:15 AM 27.5 °F 18.0 °F 20.1 °F 74% 30.20 in 10.0 mi WNW 10.4 mph 24.2 mph N/A   Scattered Clouds
10:35 AM 27.0 °F 14.7 °F 20.1 °F 75% 30.21 in 10.0 mi WNW 16.1 mph 24.2 mph N/A   Scattered Clouds
10:55 AM 27.7 °F 16.6 °F 20.5 °F 74% 30.21 in 7.0 mi WNW 13.8 mph 21.9 mph N/A   Scattered Clouds
11:15 AM 28.6 °F 19.3 °F 21.2 °F 74% 30.21 in 10.0 mi WNW 10.4 mph 23.0 mph N/A   Scattered Clouds
11:35 AM 29.7 °F 20.7 °F 21.7 °F 72% 30.20 in 10.0 mi NW 10.4 mph 23.0 mph N/A   Mostly Cloudy
11:55 AM 30.2 °F 22.6 °F 22.5 °F 73% 30.21 in 10.0 mi WNW 8.1 mph 16.1 mph N/A   Overcast
12:15 PM 30.7 °F 22.0 °F 23.0 °F 73% 30.20 in 10.0 mi WNW 10.4 mph 19.6 mph N/A   Overcast
12:35 PM 32.0 °F 24.2 °F 23.5 °F 71% 30.21 in 10.0 mi WNW 9.2 mph 20.7 mph N/A   Mostly Cloudy
12:55 PM 32.0 °F 23.0 °F 23.2 °F 70% 30.21 in 10.0 mi WNW 11.5 mph 18.4 mph N/A   Scattered Clouds
1:15 PM 32.2 °F 23.8 °F 23.4 °F 70% 30.21 in 10.0 mi NW 10.4 mph 21.9 mph N/A   Scattered Clouds
1:35 PM 32.0 °F 23.0 °F 23.5 °F 71% 30.22 in 10.0 mi NW 11.5 mph 21.9 mph N/A   Clear
1:55 PM 31.8 °F 23.3 °F 23.0 °F 70% 30.24 in 10.0 mi NW 10.4 mph 19.6 mph N/A   Mostly Cloudy
2:35 PM 31.8 °F 23.9 °F 23.0 °F 70% 30.26 in 10.0 mi NW 9.2 mph - N/A   Mostly Cloudy
2:55 PM 31.5 °F 24.9 °F 23.4 °F 72% 30.27 in 10.0 mi WNW 6.9 mph - N/A   Scattered Clouds
3:15 PM 31.1 °F 26.4 °F 23.5 °F 74% 30.28 in 10.0 mi NW 4.6 mph - N/A   Mostly Cloudy
3:35 PM 31.6 °F 25.1 °F 23.5 °F 72% 30.29 in 10.0 mi WNW 6.9 mph - N/A   Mostly Cloudy
3:55 PM 30.9 °F 25.2 °F 23.0 °F 72% 30.29 in 10.0 mi West 5.8 mph - N/A   Scattered Clouds
4:15 PM 30.2 °F 26.7 °F 23.0 °F 75% 30.29 in 10.0 mi WNW 3.5 mph - N/A   Clear
4:35 PM 30.2 °F 25.4 °F 22.5 °F 73% 30.29 in 10.0 mi WNW 4.6 mph - N/A   Clear
4:55 PM 29.7 °F - 22.1 °F 73% 30.30 in 10.0 mi Calm Calm - N/A   Clear
5:15 PM 29.3 °F 24.3 °F 22.5 °F 76% 30.31 in 10.0 mi WNW 4.6 mph - N/A   Clear
5:35 PM 29.1 °F 23.0 °F 22.5 °F 76% 30.32 in 10.0 mi West 5.8 mph - N/A   Clear
5:55 PM 28.8 °F 25.0 °F 22.1 °F 76% 30.32 in 10.0 mi West 3.5 mph - N/A   Clear
6:15 PM 28.4 °F - 22.1 °F 77% 30.33 in 10.0 mi Calm Calm - N/A   Clear
6:35 PM 28.0 °F - 21.7 °F 77% 30.34 in 10.0 mi Calm Calm - N/A   Clear
6:55 PM 27.7 °F - 21.7 °F 78% 30.35 in 10.0 mi Calm Calm - N/A   Clear
7:15 PM 27.3 °F - 21.9 °F 80% 30.35 in 10.0 mi Calm Calm - N/A   Clear
7:35 PM 26.4 °F - 21.7 °F 82% 30.34 in 10.0 mi Calm Calm - N/A   Clear
7:55 PM 25.3 °F - 21.4 °F 85% 30.36 in 10.0 mi Calm Calm - N/A   Clear
8:15 PM 26.6 °F - 22.1 °F 83% 30.36 in 10.0 mi Calm Calm - N/A   Clear
8:35 PM 25.3 °F - 21.6 °F 86% 30.36 in 10.0 mi Calm Calm - N/A   Clear
8:55 PM 21.9 °F - 18.9 °F 88% 30.35 in 10.0 mi Calm Calm - N/A   Clear
9:15 PM 22.5 °F - 20.7 °F 93% 30.35 in 10.0 mi Calm Calm - N/A   Clear
9:35 PM 23.0 °F - 19.4 °F 86% 30.36 in 10.0 mi Calm Calm - N/A   Clear
10:15 PM 22.8 °F - 20.7 °F 91% 30.36 in 10.0 mi Calm Calm - N/A   Clear
10:35 PM 21.6 °F - 19.6 °F 92% 30.36 in 10.0 mi Calm Calm - N/A   Clear
10:55 PM 19.6 °F - 17.8 °F 93% 30.36 in 10.0 mi Calm Calm - N/A   Clear
11:15 PM 19.4 °F 14.3 °F 17.6 °F 93% 30.36 in 10.0 mi South 3.5 mph - N/A   Clear
11:35 PM 19.8 °F - 18.1 °F 93% 30.36 in 10.0 mi Calm Calm - N/A   Clear
11:55 PM 19.9 °F - 18.3 °F 93% 30.36 in 7.0 mi Calm Calm - N/A   Clear